Weather History for KPVB - February, 2014

Change the Weather History Date:

Sunday, February 23, 2014

  Actual Average (KDBQ) Record (KDBQ)
Temperature  
Mean Temperature 13 °F 26 °F  
Max Temperature 19 °F 34 °F 60 °F (1933)
Min Temperature 7 °F 19 °F -16 °F (1889)
Degree Days  
Heating Degree Days 52 39  
Month to date heating degree days 969  
Since 1 July heating degree days 5206  
Cooling Degree Days 0 0  
Month to date cooling degree days 0  
Year to date cooling degree days 0  
Moisture  
Dew Point 3 °F    
Average Humidity 66    
Maximum Humidity 74    
Minimum Humidity 54    
Precipitation  
Precipitation 0.00 in 0.06 in 0.90 in (1977)
Month to date precipitation 1.14  
Year to date precipitation 2.31  
Snow  
Snow 0.00 in 0.30 in - ()
Month to date snowfall 7.7  
Since 1 July snowfall 32.3  
Snow Depth -    
Sea Level Pressure  
Sea Level Pressure 30.20 in    
Wind  
Wind Speed 11 mph (West)    
Max Wind Speed 20 mph    
Max Gust Speed 26 mph    
Visibility 10 miles    
Events      
T = Trace of Precipitation, MM = Missing Value Source: NWS Daily Summary

Daily Weather History Graph

Daily Weather History Graph

Search for Another Location

Airport or City:

Trip Planner

Search our weather history database for the weather conditions in past years. The results will help you decide how hot, cold, wet, or windy it might be!

Date:

Astronomy

Feb. 23, 2014 Rise Set
Actual Time 6:46 AM CST 5:43 PM CST
Civil Twilight 6:18 AM CST 6:12 PM CST
Nautical Twilight 5:45 AM CST 6:45 PM CST
Astronomical Twilight 5:12 AM CST 7:17 PM CST
Moon 1:49 AM CST (2/23) 11:42 AM CST (2/23)
Length of Visible Light 11h 54m
Length of Day
10h 57m
Last Quarter, 38% of the Moon is Illuminated
Feb 23
Last Quarter
Mar 1
New
Mar 8
First Quarter
Mar 16
Full
Mar 23
Last Quarter

Hourly Weather History & Observations

Time (CST) Temp. Windchill Dew Point Humidity Pressure Visibility Wind Dir Wind Speed Gust Speed Precip Events Conditions
12:15 AM 11.1 °F -0.6 °F 3.9 °F 73% 30.11 in 10.0 mi WNW 8.1 mph - N/A   Clear
12:35 AM 11.3 °F -0.4 °F 4.1 °F 73% 30.11 in 10.0 mi WNW 8.1 mph - N/A   Clear
12:55 AM 10.9 °F 0.2 °F 3.7 °F 73% 30.12 in 10.0 mi West 6.9 mph - N/A   Clear
1:15 AM 10.4 °F -0.4 °F 3.4 °F 73% 30.12 in 10.0 mi West 6.9 mph - N/A   Clear
1:35 AM 9.9 °F 0.2 °F 3.2 °F 74% 30.12 in 10.0 mi West 5.8 mph - N/A   Clear
1:55 AM 9.3 °F -2.8 °F 2.7 °F 74% 30.12 in 10.0 mi West 8.1 mph - N/A   Clear
2:15 AM 9.5 °F -0.3 °F 2.3 °F 73% 30.12 in 10.0 mi West 5.8 mph - N/A   Clear
2:35 AM 9.5 °F -2.6 °F 2.3 °F 73% 30.13 in 10.0 mi West 8.1 mph - N/A   Clear
2:55 AM 9.5 °F -3.5 °F 2.3 °F 73% 30.13 in 10.0 mi West 9.2 mph - N/A   Clear
3:10 AM 9.7 °F -2.4 °F 2.3 °F 72% 30.14 in 10.0 mi West 8.1 mph - N/A   Clear
3:35 AM 9.9 °F -3.1 °F 2.3 °F 71% 30.14 in 10.0 mi West 9.2 mph - N/A   Clear
3:55 AM 10.2 °F -2.7 °F 2.7 °F 72% 30.15 in 10.0 mi West 9.2 mph - N/A   Clear
4:15 AM 9.9 °F -3.1 °F 2.3 °F 71% 30.15 in 10.0 mi West 9.2 mph - N/A   Clear
4:35 AM 9.9 °F -3.1 °F 2.3 °F 71% 30.16 in 10.0 mi WNW 9.2 mph - N/A   Clear
4:55 AM 9.5 °F -4.4 °F 2.1 °F 72% 30.16 in 10.0 mi WNW 10.4 mph - N/A   Clear
5:15 AM 9.5 °F -4.4 °F 1.9 °F 71% 30.16 in 10.0 mi WNW 10.4 mph - N/A   Clear
5:35 AM 9.1 °F -5.6 °F 1.4 °F 71% 30.16 in 10.0 mi WNW 11.5 mph - N/A   Clear
5:55 AM 8.6 °F -5.5 °F 1.0 °F 71% 30.18 in 10.0 mi WNW 10.4 mph - N/A   Clear
6:15 AM 8.2 °F -5.1 °F 0.7 °F 71% 30.19 in 10.0 mi WNW 9.2 mph - N/A   Clear
6:35 AM 7.7 °F -4.8 °F 0.3 °F 72% 30.19 in 10.0 mi WNW 8.1 mph - N/A   Clear
6:55 AM 7.3 °F -7.1 °F -0.0 °F 72% 30.18 in 10.0 mi WNW 10.4 mph - N/A   Clear
7:15 AM 7.2 °F -1.5 °F -0.4 °F 71% 30.18 in 10.0 mi WNW 4.6 mph - N/A   Clear
7:35 AM 7.2 °F -4.3 °F -0.4 °F 71% 30.19 in 10.0 mi WNW 6.9 mph - N/A   Clear
7:55 AM 7.3 °F -4.1 °F -0.2 °F 71% 30.20 in 10.0 mi WNW 6.9 mph - N/A   Clear
8:15 AM 8.1 °F -3.2 °F 0.1 °F 70% 30.21 in 10.0 mi West 6.9 mph - N/A   Clear
8:35 AM 9.0 °F -3.2 °F 0.5 °F 69% 30.21 in 10.0 mi West 8.1 mph - N/A   Clear
8:55 AM 10.2 °F -2.7 °F 0.7 °F 65% 30.21 in 10.0 mi West 9.2 mph - N/A   Clear
9:15 AM 11.1 °F -0.6 °F 0.9 °F 63% 30.22 in 10.0 mi WNW 8.1 mph 16.1 mph N/A   Clear
9:35 AM 11.7 °F 0.0 °F 1.4 °F 63% 30.21 in 10.0 mi WNW 8.1 mph - N/A   Clear
9:55 AM 12.4 °F 2.0 °F 1.8 °F 63% 30.21 in 10.0 mi West 6.9 mph - N/A   Clear
10:15 AM 13.1 °F -0.7 °F 2.3 °F 62% 30.22 in 10.0 mi West 11.5 mph - N/A   Clear
10:35 AM 14.2 °F 0.0 °F 2.8 °F 61% 30.22 in 10.0 mi West 12.7 mph - N/A   Clear
10:55 AM 15.6 °F 0.1 °F 3.9 °F 60% 30.23 in 10.0 mi West 16.1 mph - N/A   Clear
11:15 AM 16.7 °F 2.0 °F 3.7 °F 57% 30.23 in 10.0 mi West 15.0 mph - N/A   Clear
11:30 AM 16.9 °F 2.3 °F 3.6 °F 56% 30.23 in 10.0 mi West 15.0 mph 19.6 mph N/A   Clear
11:55 AM 17.6 °F 4.3 °F 3.6 °F 54% 30.22 in 10.0 mi West 12.7 mph - N/A   Clear
12:15 PM 18.1 °F 4.4 °F 4.5 °F 55% 30.21 in 10.0 mi West 13.8 mph 20.7 mph N/A   Clear
12:35 PM 18.5 °F 4.3 °F 4.5 °F 54% 30.21 in 10.0 mi West 15.0 mph 21.9 mph N/A   Clear
12:55 PM 18.5 °F 4.3 °F 4.5 °F 54% 30.21 in 10.0 mi West 15.0 mph 23.0 mph N/A   Clear
1:15 PM 18.9 °F 4.8 °F 5.0 °F 55% 30.20 in 10.0 mi West 15.0 mph 19.6 mph N/A   Clear
1:35 PM 19.2 °F 4.3 °F 5.4 °F 55% 30.20 in 10.0 mi West 17.3 mph 20.7 mph N/A   Clear
1:55 PM 19.2 °F 3.8 °F 5.2 °F 54% 30.20 in 10.0 mi West 18.4 mph - N/A   Clear
2:15 PM 18.9 °F 2.9 °F 5.0 °F 55% 30.20 in 10.0 mi West 19.6 mph - N/A   Clear
2:35 PM 19.6 °F 5.7 °F 5.5 °F 55% 30.20 in 10.0 mi West 15.0 mph - N/A   Clear
2:55 PM 19.8 °F 4.5 °F 6.6 °F 57% 30.21 in 10.0 mi West 18.4 mph 23.0 mph N/A   Clear
3:15 PM 18.5 °F 4.3 °F 5.5 °F 57% 30.21 in 10.0 mi West 15.0 mph 23.0 mph N/A   Clear
3:35 PM 18.5 °F 2.4 °F 6.1 °F 58% 30.21 in 10.0 mi West 19.6 mph 26.5 mph N/A   Clear
3:55 PM 18.1 °F 3.9 °F 5.0 °F 57% 30.22 in 10.0 mi West 15.0 mph 24.2 mph N/A   Clear
4:15 PM 18.1 °F 5.0 °F 5.9 °F 59% 30.21 in 10.0 mi West 12.7 mph 18.4 mph N/A   Clear
4:35 PM 17.6 °F 1.7 °F 5.5 °F 59% 30.21 in 10.0 mi West 18.4 mph 25.3 mph N/A   Clear
4:55 PM 17.4 °F 2.4 °F 5.0 °F 58% 30.21 in 10.0 mi West 16.1 mph - N/A   Clear
5:15 PM 16.7 °F 2.0 °F 4.8 °F 60% 30.21 in 10.0 mi West 15.0 mph - N/A   Clear
5:35 PM 15.8 °F -0.6 °F 4.6 °F 61% 30.22 in 10.0 mi West 18.4 mph 23.0 mph N/A   Clear
5:55 PM 14.9 °F 0.3 °F 4.1 °F 62% 30.22 in 10.0 mi West 13.8 mph 23.0 mph N/A   Clear
6:15 PM 14.0 °F -2.0 °F 4.1 °F 65% 30.22 in 10.0 mi West 16.1 mph - N/A   Clear
6:35 PM 13.6 °F -3.0 °F 4.1 °F 66% 30.23 in 10.0 mi West 17.3 mph - N/A   Clear
6:55 PM 13.5 °F -2.7 °F 4.1 °F 66% 30.23 in 10.0 mi West 16.1 mph - N/A   Clear
7:15 PM 13.1 °F -4.2 °F 4.1 °F 67% 30.24 in 10.0 mi West 18.4 mph - N/A   Clear
7:35 PM 12.9 °F -3.9 °F 3.7 °F 67% 30.24 in 10.0 mi West 17.3 mph - N/A   Clear
7:50 PM 12.7 °F -3.6 °F 3.7 °F 67% 30.24 in 10.0 mi West 16.1 mph 23.0 mph N/A   Clear
8:15 PM 12.7 °F -3.0 °F 3.9 °F 68% 30.24 in 10.0 mi West 15.0 mph 19.6 mph N/A   Clear
8:35 PM 12.4 °F -4.1 °F 3.9 °F 69% 30.24 in 10.0 mi West 16.1 mph 19.6 mph N/A   Clear
8:55 PM 12.0 °F -4.5 °F 3.9 °F 70% 30.24 in 10.0 mi West 16.1 mph - N/A   Clear
9:15 PM 12.0 °F -4.5 °F 4.1 °F 71% 30.24 in 10.0 mi West 16.1 mph - N/A   Clear
9:35 PM 12.0 °F -5.1 °F 4.5 °F 72% 30.24 in 10.0 mi West 17.3 mph - N/A   Clear
9:55 PM 11.8 °F -4.2 °F 4.5 °F 72% 30.24 in 10.0 mi West 15.0 mph - N/A   Clear
10:15 PM 11.7 °F -3.2 °F 4.6 °F 73% 30.24 in 10.0 mi West 12.7 mph - N/A   Clear
10:35 PM 11.7 °F -3.8 °F 4.6 °F 73% 30.24 in 10.0 mi West 13.8 mph - N/A   Clear
10:55 PM 11.1 °F -2.4 °F 4.3 °F 74% 30.23 in 10.0 mi West 10.4 mph - N/A   Clear
11:15 PM 11.3 °F -1.3 °F 4.3 °F 73% 30.24 in 10.0 mi West 9.2 mph - N/A   Clear
11:35 PM 11.7 °F -0.9 °F 4.5 °F 73% 30.23 in 10.0 mi WNW 9.2 mph - N/A   Clear
11:55 PM 11.8 °F -1.5 °F 4.6 °F 73% 30.23 in 10.0 mi West 10.4 mph - N/A   Clear